Regional Weather Roundup
Issued by NWS Jackson, KY

Home | Current Version | Previous Version | Graphics & Text | Print | Product List | Glossary On
Versions: 1 2 3 4 5 6 7 8 9 10 11 12 13 14 15 16 17 18 19 20 21 22 23 24 25 26 27 28
000
ASUS43 KJKL 221910
RWRJKL

EAST KENTUCKY HOURLY WEATHER ROUNDUP
NATIONAL WEATHER SERVICE JACKSON KY
300 PM EDT SAT APR 22 2017

NOTE: "FAIR" INDICATES FEW OR NO CLOUDS BELOW 12,000 FEET WITH
NO SIGNIFICANT WEATHER AND/OR OBSTRUCTIONS TO VISIBILITY.

* THESE REPORTS ARE NOT UNDER NWS QUALITY CONTROL AND MAY NOT
  REPORT WEATHER SUCH AS PRECIPITATION AND FOG.

KYZ079-080-083-085-087-088-110-112-115-119-120-222000
...EASTERN KENTUCKY...

CITY           SKY/WX    TMP DP  RH WIND       PRES   REMARKS
JACKSON        CLOUDY    49  47  93 CALM      29.98S
LONDON         CLOUDY    53  49  86 N14G20    29.96R
SOMERSET*      RAIN      52  52 100 E12G17    29.96F
MONTICELLO*    RAIN      54  53  97 N13G20    29.92F
WILLIAMSBURG*  CLOUDY    55  55 100 N8        29.94R
MIDDLESBORO*   CLOUDY    65  60  84 NE5       29.90F
HARLAN APT*    CLOUDY    63  55  77 CALM      29.91F
PIKE CO APT*   CLOUDY    48  48 100 N10       29.98R
BIG SANDY APT* CLOUDY    48  48 100 N8        29.99S
MOREHEAD APT*  LGT RAIN  48  46  93 N8G15     30.05S
ASHLAND*       CLOUDY    48  46  93 NE6       30.03S
$$

KYZ035-036-041-042-044-050-067-078-099-222000
...CENTRAL KENTUCKY...

CITY           SKY/WX    TMP DP  RH WIND       PRES   REMARKS
MT STERLING*   DRIZZLE   46  46 100 NE12G20   30.04S
FLEMING/MASON* CLOUDY    48  44  87 NE6       30.05F
DANVILLE*      DRIZZLE   46  46 100 NE15G22   30.00F
LEXINGTON      LGT RAIN  49  45  86 NE20G25   30.02F FOG
FRANKFORT      CLOUDY    51  45  79 NE9       30.02F
LOUISVILLE     CLOUDY    51  46  83 NE13      30.04S
LEBANON*       CLOUDY    48  46  93 N13G21    29.99F FOG
GLASGOW*       LGT RAIN  51  51 100 NE12      29.96R
BOWLING GREEN  HVY RAIN  52  51  97 N9        29.97R FOG
$$

KYZ091>093-OHZ055-061-077-WVZ005-015-034-035-042-222000
...SOUTHERN OHIO/WEST VIRGINIA...

CITY           SKY/WX    TMP DP  RH WIND       PRES   REMARKS
COVINGTON      CLOUDY    52  37  56 NE17      30.05F
COLUMBUS       CLOUDY    56  38  50 N16       30.07F
DAYTON         CLOUDY    51  36  56 NE15      30.08F
WILMINGTON     PTSUNNY   51  41  68 NE16      30.06F
HUNTINGTON     LGT RAIN  48  45  89 N10G17    30.02S FOG
CHARLESTON     LGT RAIN  49  47  93 N7        29.99F FOG
PINEVILLE*     CLOUDY    55  52  89 MISG      29.96
BECKLEY        LGT RAIN  49  46  90 N6        29.94F
BLUEFIELD      LGT RAIN  53  50  89 N3        29.94F
LOGAN CO APT*  CLOUDY    48  48 100 N7G13     29.97R
$$

VAZ002-007-008-TNZ017-027-036-066-071-222000
...SOUTHWEST VIRGINIA/EAST TENNESSEE...

CITY           SKY/WX    TMP DP  RH WIND       PRES   REMARKS
WISE*          FOG       55  55 100 CALM      29.95S VSB 1/2
JONESVILLE*    MOCLDY    66  59  77 CALM      29.92F
ABINGDON*      RAIN      63  59  87 NW3       29.92S
BRISTOL        CLOUDY    66  61  84 W8        29.90S
MORRISTOWN*    PTCLDY    68  63  83 VRB5      29.88F
SEVIERVILLE*   CLEAR     75  55  50 SW7       29.85F
KNOXVILLE      PTSUNNY   73  58  59 SW14      29.86F
LAFOLLETTE*    CLOUDY    63  59  88 N3        29.93R
OAK RIDGE      PTSUNNY   70  61  73 VRB5      29.88F
CROSSVILLE     CLOUDY    67  58  72 W6        29.88F
NASHVILLE      TSTM      56  54  93 N9        29.91R VSB 1
$$

...KEY TO REMARKS...
VSB - VISIBILITY IN MILES
WCI - WIND CHILL INDEX
HX  - HEAT INDEX

$$




USA.gov is the U.S. government's official web portal to all federal, state and local government web resources and services.